MINOTAUR 4 DEB, 52037

Orbit data source: Space-Track

MINOTAUR 4 DEB, 52037 is space debris in LEO originally from a launch on Wed, 15 Jul 2020 UTC launched from the Wallops Island (WLPIS). Debris objects in space refer to the collection of defunct objects orbiting the Earth. Examples of debris include non-operational satellites, rocket bodies, and fragments generated from explosions, collisions, or faulty payload assembly.

Loading next visibility...
Identifier
52037, 2020-046AB
Orbit
LEO
Country
Flag of USUS
Related business
Manufacturer
NGIS FSG
Mission
Spacecraft
Bus & Motor
Unknown
Mass
Unknown
Launch date (UTC)
2020-07-15 (5 years ago)
Launch vehicle
Unknown
Launch site
Wallops Island (WLPIS)
Object type
Payload
Rocket body
Debris
Shape & HBR
Unknown shape, 0.1 m
Radar Cross Section
Small (<0.1 m²)

Expand to show TLE details & history
Last TLE update: 12 hours ago

TLE from 12 hours ago
0 MINOTAUR 4 DEB
1 52037U 20046AB  25303.91445397  .00001573  00000-0  13366-3 0  9992
2 52037  53.9779 165.4082 0010513  86.5602 273.6600 15.03604489207375
Epoch: 2025-10-30T21:56Z
TLE epoch observation values (Epoch: 2025-10-30T21:56:48.823Z)
Latitude
-0.00005°
Longitude
156.73834°
Altitude
556.311 km
Speed
7.585 km/s
True Right ascension
11h 01m 37s
True Declination
0° 00' 00"
Sunlit
Object was in daylight at epoch
Visualization orbit readout
Latitude
Unknown
Longitude
Unknown
Altitude
Unknown
Speed
Unknown
Apparent Right ascension
Unknown
Apparent Declination
Unknown
Sunlit
N/A
Visualization observer readout
Local Sidereal Time
05:06:18
Azimuth
Unknown
Elevation
Unknown
Doppler factor
Unknown
Orbital elements
Apogee altitude
563.206 km
Perigee altitude
548.626 km
Semi-major axis
6,934.053 km
Eccentricity
0.00105
Inclination
53.9779°
RAAN
165.4082°
Arg. of periapsis
86.5602°
True anomaly
273.53977°
Mean anomaly
273.66°
Eccentric anomaly
273.59988°
Mean motion
3.75891 °/min
Orbital period
95.77 mins
BSTAR
0.00013366
Loading maneuver chart data...
Computing Atmospheric mass density...

Documentation

Showing up to 5 results
|